Location: Bottom School (historical)
(37.9078°N, 89.3593°W)
Time: 23:34:57
(UTC+00:00)

STRAND 1 - Pass Details

Date: 10 April 2023
Orbit: 767 x 779 km, 98.4° (Epoch: 28 May)

Event Time Altitude Azimuth Distance (km) Brightness Sun altitude
Rises 01:39:32 0° 360° (N) 3,244 ? -14.4°
Reaches altitude 10° 01:42:08 10° 349° (N) 2,313 ? -14.9°
Maximum altitude 01:46:23 27° 292° (WNW) 1,433 ? -15.6°
Drops below altitude 10° 01:50:36 10° 235° (SW) 2,304 ? -16.4°
Sets 01:53:11 0° 224° (SW) 3,228 ? -16.9°
